DLH408 EDDF-KRDU

Flight info

Callsign DLH408
Flight time 8h 29m
Altitude 36000
Route OBOKA5G OBOKA Z29 TORNU DCT VICOT DCT GALSO Q63 ERING L179 UGBET Q60 OKSAW DCT TEWXI DCT VATRY/N0471F380 DCT TORLU DCT AGINI DCT DOGAL/M082F380 NATD NEEKO/N0477F400 N614A EBONY DCT EMJAY Q167 ZJAAY DCT COUPN TAQLE3
Aircraft A333/H-SDE3GHIJ2J3J5M1RVWXY/LB2D1

Departure

Time 2026-05-05 08:31
Airport Frankfurt Main Airport (EDDF)

Arrival

Time 2026-05-05 17:00
Airport Raleigh-Durham International Airport (KRDU)
Time Latitude Longitude Altitude Speed Heading
2026-05-05 08:12 50.04804 8.56587 360 ft 0 kts 340°
2026-05-05 08:21 50.04803 8.56587 360 ft 2 kts 340°
2026-05-05 08:21 50.04787 8.56596 360 ft 2 kts 340°
2026-05-05 08:21 50.04772 8.56605 367 ft 2 kts 340°
2026-05-05 08:22 50.04757 8.56614 363 ft 2 kts 340°
2026-05-05 08:22 50.04742 8.56623 366 ft 2 kts 284°
2026-05-05 08:22 50.04733 8.56614 367 ft 8 kts 238°
2026-05-05 08:22 50.04702 8.56545 364 ft 8 kts 235°
2026-05-05 08:23 50.04676 8.56471 368 ft 8 kts 246°
2026-05-05 08:23 50.04660 8.56406 367 ft 0 kts 249°
2026-05-05 08:23 50.04659 8.56402 367 ft 1 kts 249°
2026-05-05 08:23 50.04656 8.56392 367 ft 1 kts 249°
2026-05-05 08:24 50.04656 8.56390 367 ft 0 kts 249°
2026-05-05 08:24 50.04654 8.56381 366 ft 5 kts 249°
2026-05-05 08:24 50.04634 8.56300 364 ft 9 kts 250°
2026-05-05 08:24 50.04613 8.56210 366 ft 9 kts 250°
2026-05-05 08:25 50.04590 8.56116 364 ft 10 kts 250°
2026-05-05 08:25 50.04567 8.56017 363 ft 10 kts 250°
2026-05-05 08:25 50.04533 8.55964 366 ft 6 kts 209°
2026-05-05 08:25 50.04489 8.55943 366 ft 11 kts 196°
2026-05-05 08:26 50.04345 8.55932 363 ft 27 kts 161°
2026-05-05 08:26 50.04094 8.56130 363 ft 5 kts 68°
2026-05-05 08:27 50.04113 8.56210 365 ft 15 kts 71°
2026-05-05 08:27 50.04167 8.56449 362 ft 31 kts 69°
2026-05-05 08:27 50.04245 8.56773 371 ft 29 kts 69°
2026-05-05 08:27 50.04312 8.57055 371 ft 27 kts 69°
2026-05-05 08:28 50.04378 8.57319 370 ft 25 kts 71°
2026-05-05 08:28 50.04436 8.57573 370 ft 24 kts 69°
2026-05-05 08:28 50.04492 8.57807 370 ft 23 kts 70°
2026-05-05 08:28 50.04546 8.58037 372 ft 23 kts 70°
2026-05-05 08:29 50.04600 8.58261 376 ft 20 kts 69°
2026-05-05 08:29 50.04647 8.58457 377 ft 18 kts 79°
2026-05-05 08:29 50.04603 8.58578 373 ft 12 kts 148°
2026-05-05 08:30 50.04485 8.58581 375 ft 8 kts 242°
2026-05-05 08:30 50.04440 8.58395 378 ft 42 kts 250°
2026-05-05 08:30 50.04268 8.57668 373 ft 101 kts 250°
2026-05-05 08:30 50.03961 8.56388 363 ft 152 kts 250°
2026-05-05 08:31 50.03538 8.54632 490 ft 186 kts 250°
2026-05-05 08:31 50.03071 8.52704 1178 ft 191 kts 250°
2026-05-05 08:31 50.02738 8.50752 2119 ft 187 kts 264°
2026-05-05 08:31 50.02749 8.48657 2521 ft 205 kts 274°
2026-05-05 08:32 50.02898 8.46345 2834 ft 224 kts 275°
2026-05-05 08:32 50.02911 8.43889 3341 ft 232 kts 264°
2026-05-05 08:32 50.02674 8.41309 3619 ft 252 kts 259°
2026-05-05 08:32 50.02351 8.38566 4098 ft 262 kts 258°
2026-05-05 08:33 50.02010 8.35768 4809 ft 264 kts 258°
2026-05-05 08:33 50.01670 8.32960 5550 ft 265 kts 257°
2026-05-05 08:33 50.01360 8.30125 6287 ft 268 kts 262°
2026-05-05 08:33 50.01507 8.27223 6998 ft 275 kts 284°
2026-05-05 08:34 50.02193 8.24428 7734 ft 279 kts 292°
2026-05-05 08:34 50.03005 8.21676 8541 ft 282 kts 293°
2026-05-05 08:34 50.03838 8.18903 9310 ft 284 kts 293°
2026-05-05 08:34 50.04668 8.16108 10002 ft 287 kts 292°
2026-05-05 08:35 50.05532 8.13217 10373 ft 303 kts 295°
2026-05-05 08:35 50.06715 8.10375 10631 ft 323 kts 305°
2026-05-05 08:35 50.08124 8.07584 10861 ft 341 kts 307°
2026-05-05 08:35 50.09654 8.04647 11084 ft 358 kts 307°
2026-05-05 08:36 50.11252 8.01575 11365 ft 371 kts 307°
2026-05-05 08:36 50.12888 7.98416 11878 ft 377 kts 307°
2026-05-05 08:36 50.14541 7.95212 12461 ft 381 kts 307°
2026-05-05 08:36 50.16208 7.91974 13098 ft 384 kts 306°
2026-05-05 08:37 50.17886 7.88705 13698 ft 388 kts 306°
2026-05-05 08:37 50.19575 7.85405 14223 ft 391 kts 306°
2026-05-05 08:37 50.21281 7.82068 14756 ft 394 kts 306°
2026-05-05 08:37 50.22997 7.78706 15291 ft 397 kts 306°
2026-05-05 08:38 50.24803 7.75416 15829 ft 402 kts 314°
2026-05-05 08:38 50.27066 7.72800 16344 ft 410 kts 329°
2026-05-05 08:38 50.29648 7.70861 16872 ft 414 kts 334°
2026-05-05 08:38 50.32304 7.69059 17383 ft 417 kts 335°
2026-05-05 08:39 50.34977 7.67261 17884 ft 420 kts 335°
2026-05-05 08:39 50.37670 7.65438 18357 ft 423 kts 335°
2026-05-05 08:39 50.40381 7.63590 18777 ft 426 kts 334°
2026-05-05 08:39 50.43104 7.61725 19266 ft 427 kts 334°
2026-05-05 08:40 50.45833 7.59850 19685 ft 430 kts 334°
2026-05-05 08:40 50.48588 7.57953 20099 ft 433 kts 334°
2026-05-05 08:40 50.51357 7.56043 20505 ft 436 kts 334°
2026-05-05 08:40 50.54146 7.54110 20914 ft 439 kts 333°
2026-05-05 08:41 50.56844 7.51869 21304 ft 440 kts 327°
2026-05-05 08:41 50.59441 7.49299 21696 ft 442 kts 325°
2026-05-05 08:41 50.62025 7.46652 22118 ft 445 kts 324°
2026-05-05 08:41 50.64625 7.43975 22523 ft 447 kts 325°
2026-05-05 08:42 50.67228 7.41295 23015 ft 447 kts 325°
2026-05-05 08:42 50.69842 7.38605 23402 ft 450 kts 325°
2026-05-05 08:42 50.72360 7.35766 23721 ft 452 kts 319°
2026-05-05 08:42 50.74609 7.32225 24058 ft 451 kts 307°
2026-05-05 08:43 50.76348 7.28194 24392 ft 451 kts 299°
2026-05-05 08:43 50.77896 7.23888 24734 ft 451 kts 296°
2026-05-05 08:43 50.79347 7.19478 25091 ft 452 kts 295°
2026-05-05 08:43 50.80755 7.15025 25438 ft 454 kts 294°
2026-05-05 08:44 50.82157 7.10547 25763 ft 455 kts 294°
2026-05-05 08:44 50.83591 7.05988 26099 ft 457 kts 294°
2026-05-05 08:44 50.85001 7.01542 26403 ft 459 kts 294°
2026-05-05 08:44 50.86446 6.97018 26735 ft 461 kts 294°
2026-05-05 08:45 50.87901 6.92486 27126 ft 463 kts 294°
2026-05-05 08:45 50.89366 6.87937 27538 ft 465 kts 294°
2026-05-05 08:45 50.90837 6.83362 27889 ft 467 kts 294°
2026-05-05 08:45 50.92311 6.78770 28212 ft 468 kts 294°
2026-05-05 08:46 50.93787 6.74159 28522 ft 470 kts 294°
2026-05-05 08:46 50.95267 6.69525 28804 ft 472 kts 294°
2026-05-05 08:46 50.96747 6.64883 29174 ft 471 kts 294°
2026-05-05 08:46 50.98222 6.60249 29685 ft 469 kts 293°
2026-05-05 08:47 50.99686 6.55643 30152 ft 466 kts 293°
2026-05-05 08:47 51.01142 6.51054 30529 ft 464 kts 292°
2026-05-05 08:47 51.02592 6.46473 30893 ft 463 kts 292°
2026-05-05 08:47 51.04032 6.41912 31269 ft 461 kts 292°
2026-05-05 08:48 51.05468 6.37355 31616 ft 460 kts 291°
2026-05-05 08:48 51.06894 6.32820 31990 ft 458 kts 291°
2026-05-05 08:48 51.08318 6.28285 32360 ft 457 kts 291°
2026-05-05 08:48 51.09733 6.23770 32701 ft 455 kts 291°
2026-05-05 08:49 51.11142 6.19267 33059 ft 454 kts 290°
2026-05-05 08:49 51.12544 6.14777 33373 ft 453 kts 290°
2026-05-05 08:49 51.13406 6.11758 33502 ft 451 kts 285°
2026-05-05 08:49 51.14715 6.05466 33862 ft 445 kts 279°
2026-05-05 08:50 51.15542 6.00793 34130 ft 443 kts 279°
2026-05-05 08:50 51.16333 5.96054 34341 ft 443 kts 278°
2026-05-05 08:50 51.17098 5.91307 34547 ft 443 kts 278°
2026-05-05 08:50 51.17610 5.88093 34689 ft 443 kts 278°
2026-05-05 08:51 51.18624 5.81776 34999 ft 444 kts 279°
2026-05-05 08:51 51.19154 5.78620 35148 ft 445 kts 280°
2026-05-05 08:51 51.19976 5.73857 35386 ft 445 kts 280°
2026-05-05 08:51 51.20809 5.69115 35616 ft 444 kts 281°
2026-05-05 08:52 51.21649 5.64345 35684 ft 447 kts 281°
2026-05-05 08:52 51.22489 5.59564 35823 ft 448 kts 281°
2026-05-05 08:52 51.23328 5.54758 35901 ft 450 kts 281°
2026-05-05 08:53 51.24999 5.45125 35915 ft 450 kts 281°
2026-05-05 08:53 51.26658 5.35482 35913 ft 450 kts 281°
2026-05-05 08:54 51.28305 5.25843 35913 ft 450 kts 281°
2026-05-05 08:54 51.29945 5.16183 35914 ft 451 kts 281°
2026-05-05 08:55 51.31582 5.06488 35915 ft 452 kts 281°
2026-05-05 08:55 51.33214 4.96781 35928 ft 452 kts 281°
2026-05-05 08:56 51.34837 4.87068 35926 ft 452 kts 281°
2026-05-05 08:56 51.36453 4.77346 35942 ft 452 kts 281°
2026-05-05 08:57 51.38052 4.67665 35932 ft 453 kts 281°
2026-05-05 08:57 51.39654 4.57911 35934 ft 453 kts 281°
2026-05-05 08:58 51.41252 4.48130 35937 ft 453 kts 281°
2026-05-05 08:58 51.42840 4.38355 35939 ft 453 kts 281°
2026-05-05 08:59 51.44418 4.28577 35939 ft 453 kts 281°
2026-05-05 08:59 51.45988 4.18795 35938 ft 453 kts 281°
2026-05-05 09:00 51.47554 4.09004 35933 ft 453 kts 282°
2026-05-05 09:00 51.49806 3.99497 35935 ft 458 kts 290°
2026-05-05 09:01 51.52442 3.90191 35932 ft 457 kts 291°
2026-05-05 09:01 51.55132 3.80962 35931 ft 455 kts 291°
2026-05-05 09:02 51.57806 3.71744 35933 ft 455 kts 291°
2026-05-05 09:02 51.60460 3.62505 35939 ft 455 kts 291°
2026-05-05 09:03 51.63082 3.53314 35936 ft 455 kts 291°
2026-05-05 09:03 51.65718 3.44041 35940 ft 455 kts 291°
2026-05-05 09:04 51.68344 3.34764 35949 ft 455 kts 291°
2026-05-05 09:04 51.70950 3.25461 35953 ft 455 kts 289°
2026-05-05 09:05 51.72534 3.15693 35950 ft 448 kts 273°
2026-05-05 09:05 51.72350 3.05725 35953 ft 445 kts 262°
2026-05-05 09:06 51.71538 2.95836 35955 ft 445 kts 260°
2026-05-05 09:06 51.70617 2.85963 35956 ft 446 kts 260°
2026-05-05 09:07 51.69705 2.76045 35957 ft 448 kts 260°
2026-05-05 09:07 51.68809 2.66097 35960 ft 448 kts 261°
2026-05-05 09:08 51.67918 2.56152 35955 ft 448 kts 260°
2026-05-05 09:08 51.67021 2.46211 35958 ft 448 kts 260°
2026-05-05 09:09 51.66112 2.36276 35960 ft 449 kts 261°
2026-05-05 09:09 51.65189 2.26308 35968 ft 451 kts 261°
2026-05-05 09:10 51.64258 2.16331 35963 ft 451 kts 261°
2026-05-05 09:10 51.63324 2.06359 35972 ft 451 kts 261°
2026-05-05 09:11 51.62406 1.96449 35968 ft 451 kts 261°
2026-05-05 09:11 51.61476 1.86473 35975 ft 451 kts 260°
2026-05-05 09:12 51.60535 1.76484 35968 ft 452 kts 260°
2026-05-05 09:12 51.59583 1.66494 35974 ft 452 kts 261°
2026-05-05 09:13 51.59323 1.56407 35974 ft 453 kts 271°
2026-05-05 09:13 51.59670 1.46279 35977 ft 454 kts 272°
2026-05-05 09:14 51.60122 1.36152 35976 ft 455 kts 272°
2026-05-05 09:14 51.60571 1.25980 35974 ft 456 kts 272°
2026-05-05 09:15 51.60995 1.15805 35977 ft 456 kts 272°
2026-05-05 09:15 51.61401 1.05623 35977 ft 456 kts 272°
2026-05-05 09:16 51.61796 0.95447 35986 ft 456 kts 272°
2026-05-05 09:16 51.62184 0.85245 35990 ft 457 kts 272°
2026-05-05 09:17 51.62563 0.75026 35994 ft 457 kts 272°
2026-05-05 09:17 51.62935 0.64805 35997 ft 457 kts 272°
2026-05-05 09:18 51.63297 0.54586 35996 ft 457 kts 272°
2026-05-05 09:18 51.63651 0.44362 35993 ft 458 kts 272°
2026-05-05 09:19 51.63996 0.34110 35985 ft 459 kts 271°
2026-05-05 09:19 51.64331 0.23918 35988 ft 459 kts 271°
2026-05-05 09:20 51.64318 0.13669 35991 ft 457 kts 262°
2026-05-05 09:20 51.63408 0.03537 35992 ft 457 kts 259°
2026-05-05 09:21 51.62321 -0.06551 35990 ft 458 kts 260°
2026-05-05 09:21 51.62076 -0.16799 35996 ft 460 kts 272°
2026-05-05 09:22 51.62584 -0.27087 35993 ft 461 kts 274°
2026-05-05 09:22 51.63230 -0.37338 35997 ft 462 kts 274°
2026-05-05 09:23 51.63878 -0.47620 35995 ft 461 kts 274°
2026-05-05 09:23 51.64495 -0.57903 35990 ft 461 kts 274°
2026-05-05 09:24 51.65093 -0.68196 35994 ft 461 kts 274°
2026-05-05 09:24 51.65680 -0.78482 35984 ft 461 kts 274°
2026-05-05 09:25 51.66250 -0.88633 35986 ft 461 kts 274°
2026-05-05 09:25 51.66819 -0.98920 35996 ft 462 kts 274°
2026-05-05 09:26 51.67378 -1.09196 35991 ft 464 kts 273°
2026-05-05 09:26 51.67937 -1.19625 35996 ft 464 kts 273°
2026-05-05 09:27 51.68479 -1.29925 35996 ft 465 kts 273°
2026-05-05 09:27 51.69017 -1.40299 36016 ft 464 kts 273°
2026-05-05 09:28 51.69546 -1.50686 36024 ft 465 kts 273°
2026-05-05 09:28 51.70069 -1.61116 36020 ft 468 kts 274°
2026-05-05 09:29 51.71497 -1.71349 36006 ft 471 kts 290°
2026-05-05 09:29 51.74204 -1.80978 36009 ft 472 kts 295°
2026-05-05 09:30 51.77152 -1.90462 36018 ft 472 kts 295°
2026-05-05 09:30 51.80117 -1.99923 36023 ft 472 kts 295°
2026-05-05 09:31 51.82635 -2.09686 36021 ft 470 kts 289°
2026-05-05 09:31 51.84935 -2.19495 36021 ft 469 kts 289°
2026-05-05 09:32 51.87202 -2.29397 36020 ft 469 kts 289°
2026-05-05 09:32 51.89463 -2.39312 36021 ft 469 kts 288°
2026-05-05 09:33 51.91725 -2.49236 36024 ft 470 kts 289°
2026-05-05 09:33 51.93987 -2.59187 36026 ft 471 kts 289°
2026-05-05 09:34 51.96242 -2.69155 36028 ft 471 kts 289°
2026-05-05 09:34 51.98491 -2.79143 36031 ft 471 kts 289°
2026-05-05 09:35 52.00729 -2.89130 36019 ft 471 kts 289°
2026-05-05 09:35 52.04078 -3.04171 36031 ft 474 kts 290°
2026-05-05 09:36 52.06310 -3.14255 36037 ft 475 kts 290°
2026-05-05 09:36 52.08538 -3.24366 36036 ft 475 kts 289°
2026-05-05 09:37 52.10754 -3.34475 36039 ft 474 kts 289°
2026-05-05 09:37 52.12587 -3.42874 36040 ft 474 kts 289°
2026-05-05 09:38 52.14788 -3.53001 36042 ft 475 kts 290°
2026-05-05 09:38 52.16982 -3.63152 36047 ft 476 kts 290°
2026-05-05 09:39 52.19170 -3.73324 36043 ft 475 kts 289°
2026-05-05 09:39 52.21345 -3.83488 36042 ft 474 kts 290°
2026-05-05 09:40 52.23509 -3.93648 36047 ft 474 kts 289°
2026-05-05 09:40 52.25658 -4.03792 36049 ft 472 kts 290°
2026-05-05 09:41 52.27790 -4.13899 36050 ft 470 kts 290°
2026-05-05 09:41 52.29911 -4.24008 36055 ft 470 kts 289°
2026-05-05 09:42 52.32009 -4.34059 36054 ft 470 kts 289°
2026-05-05 09:42 52.34111 -4.44182 36060 ft 470 kts 289°
2026-05-05 09:43 52.36204 -4.54312 36061 ft 469 kts 289°
2026-05-05 09:43 52.38282 -4.64419 36064 ft 468 kts 289°
2026-05-05 09:44 52.40350 -4.74528 36066 ft 468 kts 289°
2026-05-05 09:44 52.42407 -4.84639 36067 ft 468 kts 289°
2026-05-05 09:45 52.44452 -4.94733 36066 ft 465 kts 288°
2026-05-05 09:45 52.46478 -5.04793 36071 ft 463 kts 288°
2026-05-05 09:46 52.48489 -5.14828 36071 ft 463 kts 288°
2026-05-05 09:46 52.50489 -5.24863 36346 ft 462 kts 288°
2026-05-05 09:47 52.51467 -5.29788 36719 ft 458 kts 288°
2026-05-05 09:47 52.52449 -5.34742 36928 ft 457 kts 288°
2026-05-05 09:47 52.54416 -5.44711 37229 ft 458 kts 288°
2026-05-05 09:48 52.55401 -5.49699 37371 ft 459 kts 288°
2026-05-05 09:48 52.56433 -5.54671 37488 ft 460 kts 289°
2026-05-05 09:48 52.57504 -5.59626 37736 ft 458 kts 290°
2026-05-05 09:48 52.58586 -5.64552 37932 ft 458 kts 290°
2026-05-05 09:49 52.59670 -5.69474 38062 ft 459 kts 290°
2026-05-05 09:49 52.60756 -5.74421 38074 ft 458 kts 290°
2026-05-05 09:49 52.62895 -5.84263 38076 ft 456 kts 289°
2026-05-05 09:50 52.65007 -5.94086 38072 ft 454 kts 289°
2026-05-05 09:50 52.67109 -6.03920 38070 ft 455 kts 289°
2026-05-05 09:51 52.69202 -6.13766 38075 ft 456 kts 289°
2026-05-05 09:51 52.71277 -6.23570 38075 ft 456 kts 289°
2026-05-05 09:52 52.73359 -6.33453 38073 ft 456 kts 289°
2026-05-05 09:52 52.75432 -6.43339 38072 ft 456 kts 289°
2026-05-05 09:53 52.77495 -6.53231 38077 ft 456 kts 289°
2026-05-05 09:53 52.79550 -6.63130 38076 ft 455 kts 289°
2026-05-05 09:54 52.81591 -6.73010 38081 ft 454 kts 289°
2026-05-05 09:54 52.83622 -6.82892 38080 ft 454 kts 289°
2026-05-05 09:55 52.85644 -6.92780 38085 ft 454 kts 289°
2026-05-05 09:55 52.87659 -7.02683 38086 ft 454 kts 288°
2026-05-05 09:56 52.89665 -7.12590 38085 ft 454 kts 288°
2026-05-05 09:56 52.91663 -7.22510 38086 ft 454 kts 288°
2026-05-05 09:57 52.93652 -7.32435 38089 ft 454 kts 288°
2026-05-05 09:57 52.95620 -7.42304 38088 ft 454 kts 288°
2026-05-05 09:58 52.97594 -7.52251 38091 ft 454 kts 288°
2026-05-05 09:58 52.99507 -7.62216 38091 ft 454 kts 287°
2026-05-05 09:59 53.01253 -7.72301 38093 ft 454 kts 285°
2026-05-05 09:59 53.02951 -7.82396 38094 ft 454 kts 285°
2026-05-05 10:00 53.04656 -7.92503 38097 ft 453 kts 285°
2026-05-05 10:00 53.06362 -8.02593 38100 ft 453 kts 285°
2026-05-05 10:01 53.08064 -8.12693 38096 ft 453 kts 285°
2026-05-05 10:01 53.09757 -8.22802 38102 ft 454 kts 285°
2026-05-05 10:02 53.11439 -8.32907 38099 ft 454 kts 285°
2026-05-05 10:02 53.13117 -8.43050 38107 ft 454 kts 285°
2026-05-05 10:03 53.14773 -8.53115 38105 ft 454 kts 285°
2026-05-05 10:03 53.16426 -8.63265 38110 ft 454 kts 285°
2026-05-05 10:04 53.18054 -8.73426 38109 ft 454 kts 285°
2026-05-05 10:04 53.19672 -8.83590 38113 ft 453 kts 285°
2026-05-05 10:05 53.21282 -8.93760 38116 ft 453 kts 285°
2026-05-05 10:05 53.22882 -9.03927 38117 ft 453 kts 285°
2026-05-05 10:06 53.24475 -9.14105 38116 ft 453 kts 285°
2026-05-05 10:06 53.26060 -9.24294 38116 ft 453 kts 285°
2026-05-05 10:07 53.27634 -9.34476 38119 ft 453 kts 285°
2026-05-05 10:07 53.29200 -9.44671 38119 ft 452 kts 284°
2026-05-05 10:08 53.30755 -9.54862 38121 ft 452 kts 284°
2026-05-05 10:08 53.32303 -9.65065 38120 ft 452 kts 284°
2026-05-05 10:09 53.33841 -9.75272 38132 ft 452 kts 284°
2026-05-05 10:09 53.35371 -9.85489 38129 ft 452 kts 284°
2026-05-05 10:10 53.36890 -9.95702 38135 ft 451 kts 284°
2026-05-05 10:10 53.38389 -10.05840 38135 ft 451 kts 284°
2026-05-05 10:11 53.39890 -10.16063 38138 ft 451 kts 284°
2026-05-05 10:11 53.41381 -10.26280 38140 ft 451 kts 284°
2026-05-05 10:12 53.42865 -10.36518 38143 ft 451 kts 284°
2026-05-05 10:12 53.44338 -10.46743 38143 ft 451 kts 284°
2026-05-05 10:13 53.45801 -10.56975 38143 ft 451 kts 284°
2026-05-05 10:13 53.47257 -10.67218 38145 ft 451 kts 284°
2026-05-05 10:14 53.48694 -10.77398 38148 ft 451 kts 284°
2026-05-05 10:14 53.50130 -10.87646 38160 ft 451 kts 283°
2026-05-05 10:15 53.51557 -10.97890 38151 ft 450 kts 283°
2026-05-05 10:15 53.52973 -11.08126 38152 ft 449 kts 283°
2026-05-05 10:16 53.54379 -11.18368 38154 ft 450 kts 283°
2026-05-05 10:16 53.55779 -11.28628 38159 ft 450 kts 283°
2026-05-05 10:17 53.57169 -11.38888 38160 ft 450 kts 283°
2026-05-05 10:17 53.58549 -11.49150 38158 ft 450 kts 283°
2026-05-05 10:18 53.59915 -11.59369 38165 ft 451 kts 283°
2026-05-05 10:18 53.61281 -11.69668 38165 ft 451 kts 283°
2026-05-05 10:19 53.62639 -11.79981 38165 ft 451 kts 283°
2026-05-05 10:19 53.63989 -11.90310 38164 ft 451 kts 283°
2026-05-05 10:20 53.65330 -12.00636 38174 ft 451 kts 283°
2026-05-05 10:20 53.66661 -12.10968 38173 ft 451 kts 282°
2026-05-05 10:21 53.67983 -12.21304 38175 ft 451 kts 282°
2026-05-05 10:21 53.69301 -12.31679 38176 ft 451 kts 282°
2026-05-05 10:22 53.70606 -12.42032 38181 ft 451 kts 282°
2026-05-05 10:22 53.71894 -12.52329 38181 ft 451 kts 282°
2026-05-05 10:23 53.73182 -12.62703 38181 ft 451 kts 282°
2026-05-05 10:23 53.74460 -12.73079 38184 ft 451 kts 282°
2026-05-05 10:24 53.75729 -12.83454 38187 ft 451 kts 282°
2026-05-05 10:24 53.76989 -12.93838 38189 ft 451 kts 282°
2026-05-05 10:25 53.78239 -13.04223 38189 ft 451 kts 282°
2026-05-05 10:25 53.79482 -13.14619 38195 ft 451 kts 282°
2026-05-05 10:26 53.80714 -13.25018 38195 ft 451 kts 282°
2026-05-05 10:26 53.81732 -13.33666 38195 ft 451 kts 282°
2026-05-05 10:27 53.82949 -13.44082 38195 ft 451 kts 282°
2026-05-05 10:27 53.84155 -13.54489 38195 ft 451 kts 282°
2026-05-05 10:28 53.85353 -13.64907 38195 ft 451 kts 281°
2026-05-05 10:28 53.86542 -13.75333 38196 ft 451 kts 281°
2026-05-05 10:29 53.87720 -13.85753 38200 ft 450 kts 281°
2026-05-05 10:29 53.88890 -13.96177 38200 ft 450 kts 281°
2026-05-05 10:30 53.90049 -14.06593 38203 ft 450 kts 281°
2026-05-05 10:30 53.91200 -14.17030 38203 ft 450 kts 281°
2026-05-05 10:31 53.92342 -14.27469 38206 ft 450 kts 281°
2026-05-05 10:31 53.93474 -14.37906 38205 ft 450 kts 281°
2026-05-05 10:32 53.94597 -14.48344 38209 ft 449 kts 281°
2026-05-05 10:32 53.95702 -14.58713 38208 ft 449 kts 281°
2026-05-05 10:33 53.96807 -14.69162 38211 ft 449 kts 281°
2026-05-05 10:33 53.97901 -14.79611 38211 ft 449 kts 281°
2026-05-05 10:34 53.98988 -14.90071 38204 ft 449 kts 280°
2026-05-05 10:34 54.00267 -15.00451 38211 ft 449 kts 288°
2026-05-05 10:35 54.02334 -15.10454 38213 ft 449 kts 290°
2026-05-05 10:35 54.04553 -15.20374 38224 ft 449 kts 291°
2026-05-05 10:36 54.06794 -15.30296 38216 ft 449 kts 291°
2026-05-05 10:36 54.09017 -15.40239 38219 ft 449 kts 291°
2026-05-05 10:37 54.11224 -15.50205 38212 ft 449 kts 290°
2026-05-05 10:37 54.13421 -15.60193 38219 ft 449 kts 290°
2026-05-05 10:38 54.15606 -15.70175 38222 ft 449 kts 290°
2026-05-05 10:38 54.17770 -15.80105 38222 ft 449 kts 290°
2026-05-05 10:39 54.19942 -15.90119 38225 ft 449 kts 290°
2026-05-05 10:39 54.22105 -16.00136 38225 ft 449 kts 290°
2026-05-05 10:40 54.24260 -16.10172 38224 ft 450 kts 290°
2026-05-05 10:40 54.26406 -16.20212 38226 ft 449 kts 290°
2026-05-05 10:41 54.28542 -16.30254 38230 ft 449 kts 290°
2026-05-05 10:41 54.30670 -16.40312 38230 ft 449 kts 290°
2026-05-05 10:42 54.33846 -16.55409 38230 ft 449 kts 290°
2026-05-05 10:43 54.35952 -16.65489 38233 ft 449 kts 289°
2026-05-05 10:43 54.38050 -16.75576 38233 ft 449 kts 289°
2026-05-05 10:44 54.40140 -16.85676 38233 ft 449 kts 289°
2026-05-05 10:44 54.42220 -16.95782 38235 ft 449 kts 289°
2026-05-05 10:45 54.44292 -17.05898 38236 ft 449 kts 289°
2026-05-05 10:45 54.46356 -17.16025 38236 ft 449 kts 289°
2026-05-05 10:46 54.48412 -17.26167 38236 ft 449 kts 289°
2026-05-05 10:46 54.50445 -17.36245 38235 ft 449 kts 289°
2026-05-05 10:47 54.52483 -17.46401 38245 ft 449 kts 289°
2026-05-05 10:47 54.54516 -17.56586 38238 ft 450 kts 289°
2026-05-05 10:48 54.56540 -17.66775 38238 ft 450 kts 289°
2026-05-05 10:48 54.58556 -17.76982 38244 ft 450 kts 289°
2026-05-05 10:49 54.60564 -17.87196 38243 ft 450 kts 289°
2026-05-05 10:49 54.62563 -17.97424 38247 ft 449 kts 289°
2026-05-05 10:50 54.64552 -18.07653 38238 ft 449 kts 288°
2026-05-05 10:50 54.66533 -18.17897 38247 ft 450 kts 288°
2026-05-05 10:51 54.68507 -18.28155 38247 ft 450 kts 288°
2026-05-05 10:51 54.70472 -18.38426 38249 ft 450 kts 288°
2026-05-05 10:52 54.72428 -18.48704 38249 ft 450 kts 288°
2026-05-05 10:52 54.74365 -18.58931 38249 ft 450 kts 288°
2026-05-05 10:53 54.76304 -18.69233 38249 ft 450 kts 288°
2026-05-05 10:53 54.78235 -18.79543 38252 ft 450 kts 288°
2026-05-05 10:54 54.80158 -18.89870 38251 ft 450 kts 288°
2026-05-05 10:54 54.82071 -19.00200 38256 ft 450 kts 288°
2026-05-05 10:55 54.83979 -19.10561 38254 ft 451 kts 288°
2026-05-05 10:55 54.85876 -19.20922 38255 ft 451 kts 288°
2026-05-05 10:56 54.87765 -19.31293 38258 ft 451 kts 288°
2026-05-05 10:56 54.89646 -19.41680 38253 ft 451 kts 288°
2026-05-05 10:57 54.91519 -19.52078 38259 ft 451 kts 288°
2026-05-05 10:57 54.93383 -19.62486 38263 ft 451 kts 288°
2026-05-05 10:58 54.95236 -19.72897 38262 ft 451 kts 288°
2026-05-05 10:58 54.97083 -19.83329 38263 ft 451 kts 288°
2026-05-05 10:59 54.98921 -19.93772 38262 ft 451 kts 288°
2026-05-05 10:59 55.00135 -20.04482 38263 ft 452 kts 277°
2026-05-05 11:00 55.00682 -20.15398 38276 ft 453 kts 275°
2026-05-05 11:00 55.01098 -20.26364 38265 ft 454 kts 275°
2026-05-05 11:01 55.01492 -20.37257 38266 ft 453 kts 275°
2026-05-05 11:01 55.01894 -20.48227 38265 ft 454 kts 275°
2026-05-05 11:02 55.02296 -20.59207 38265 ft 454 kts 275°
2026-05-05 11:02 55.02689 -20.70183 38270 ft 454 kts 275°
2026-05-05 11:03 55.03073 -20.81171 38262 ft 454 kts 275°
2026-05-05 11:03 55.03447 -20.92176 38276 ft 455 kts 275°
2026-05-05 11:04 55.03810 -21.03180 38272 ft 455 kts 275°
2026-05-05 11:04 55.04164 -21.14189 38265 ft 455 kts 275°
2026-05-05 11:05 55.04507 -21.25200 38260 ft 455 kts 275°
2026-05-05 11:05 55.04841 -21.36220 38275 ft 455 kts 275°
2026-05-05 11:06 55.05163 -21.47175 38271 ft 455 kts 275°
2026-05-05 11:06 55.05478 -21.58206 38278 ft 455 kts 275°
2026-05-05 11:07 55.05782 -21.69242 38273 ft 455 kts 274°
2026-05-05 11:07 55.06076 -21.80275 38281 ft 455 kts 274°
2026-05-05 11:08 55.06361 -21.91321 38277 ft 456 kts 274°
2026-05-05 11:08 55.06636 -22.02372 38279 ft 456 kts 274°
2026-05-05 11:09 55.06900 -22.13418 38278 ft 456 kts 274°
2026-05-05 11:09 55.07155 -22.24469 38279 ft 456 kts 274°
2026-05-05 11:10 55.07399 -22.35515 38282 ft 456 kts 274°
2026-05-05 11:10 55.07634 -22.46564 38273 ft 456 kts 274°
2026-05-05 11:11 55.07859 -22.57625 38286 ft 456 kts 274°
2026-05-05 11:11 55.08073 -22.68680 38279 ft 456 kts 274°
2026-05-05 11:12 55.08278 -22.79746 38281 ft 456 kts 274°
2026-05-05 11:12 55.08472 -22.90737 38284 ft 456 kts 274°
2026-05-05 11:13 55.08656 -23.01801 38281 ft 456 kts 274°
2026-05-05 11:13 55.08804 -23.11086 38281 ft 456 kts 274°
2026-05-05 11:14 55.08996 -23.23953 38290 ft 456 kts 274°
2026-05-05 11:14 55.09150 -23.35022 38287 ft 456 kts 274°
2026-05-05 11:15 55.09271 -23.44220 38287 ft 456 kts 274°
2026-05-05 11:15 55.09408 -23.55298 38292 ft 456 kts 274°
2026-05-05 11:16 55.09534 -23.66362 38272 ft 456 kts 274°
2026-05-05 11:16 55.09650 -23.77433 38297 ft 456 kts 274°
2026-05-05 11:17 55.09756 -23.88511 38293 ft 456 kts 273°
2026-05-05 11:17 55.09852 -23.99585 38298 ft 456 kts 273°
2026-05-05 11:18 55.09938 -24.10665 38299 ft 456 kts 273°
2026-05-05 11:18 55.10014 -24.21673 38302 ft 456 kts 273°
2026-05-05 11:19 55.10080 -24.32762 38302 ft 456 kts 273°
2026-05-05 11:19 55.10136 -24.43848 38301 ft 456 kts 273°
2026-05-05 11:20 55.10182 -24.54935 38306 ft 456 kts 273°
2026-05-05 11:20 55.10218 -24.66017 38300 ft 456 kts 273°
2026-05-05 11:21 55.10243 -24.77108 38302 ft 456 kts 273°
2026-05-05 11:21 55.10259 -24.88197 38289 ft 457 kts 273°
2026-05-05 11:22 55.10265 -24.99294 38307 ft 457 kts 273°
2026-05-05 11:22 55.10260 -25.10383 38306 ft 457 kts 273°
2026-05-05 11:23 55.10246 -25.21399 38306 ft 457 kts 273°
2026-05-05 11:23 55.10221 -25.32489 38309 ft 457 kts 272°
2026-05-05 11:24 55.10187 -25.43583 38315 ft 457 kts 272°
2026-05-05 11:24 55.10142 -25.54682 38307 ft 457 kts 272°
2026-05-05 11:25 55.10087 -25.65768 38312 ft 457 kts 272°
2026-05-05 11:25 55.10022 -25.76860 38312 ft 457 kts 272°
2026-05-05 11:26 55.09947 -25.87960 38312 ft 457 kts 272°
2026-05-05 11:26 55.09862 -25.99047 38310 ft 457 kts 272°
2026-05-05 11:27 55.09767 -26.10154 38305 ft 457 kts 272°
2026-05-05 11:27 55.09662 -26.21256 38310 ft 457 kts 272°
2026-05-05 11:28 55.09547 -26.32362 38322 ft 458 kts 272°
2026-05-05 11:28 55.09422 -26.43394 38320 ft 458 kts 272°
2026-05-05 11:29 55.09285 -26.54579 38309 ft 458 kts 272°
2026-05-05 11:29 55.09140 -26.65686 38324 ft 458 kts 272°
2026-05-05 11:30 55.08985 -26.76719 38326 ft 458 kts 272°
2026-05-05 11:30 55.08819 -26.87830 38324 ft 458 kts 272°
2026-05-05 11:31 55.08643 -26.98938 38322 ft 458 kts 271°
2026-05-05 11:31 55.08456 -27.10047 38326 ft 458 kts 271°
2026-05-05 11:32 55.08260 -27.21158 38330 ft 458 kts 271°
2026-05-05 11:32 55.08053 -27.32271 38316 ft 458 kts 271°
2026-05-05 11:33 55.07837 -27.43381 38328 ft 458 kts 271°
2026-05-05 11:33 55.07610 -27.54512 38327 ft 459 kts 271°
2026-05-05 11:34 55.07372 -27.65660 38326 ft 459 kts 271°
2026-05-05 11:34 55.07124 -27.76805 38330 ft 460 kts 271°
2026-05-05 11:35 55.06866 -27.87948 38328 ft 460 kts 271°
2026-05-05 11:35 55.06598 -27.99090 38327 ft 460 kts 271°
2026-05-05 11:36 55.06319 -28.10239 38336 ft 460 kts 271°
2026-05-05 11:36 55.06033 -28.21304 38337 ft 460 kts 271°
2026-05-05 11:37 55.05734 -28.32445 38330 ft 460 kts 271°
2026-05-05 11:37 55.05425 -28.43588 38333 ft 460 kts 271°
2026-05-05 11:38 55.05106 -28.54724 38332 ft 460 kts 271°
2026-05-05 11:38 55.04777 -28.65850 38336 ft 459 kts 271°
2026-05-05 11:39 55.04438 -28.76960 38334 ft 459 kts 271°
2026-05-05 11:39 55.04089 -28.88066 38336 ft 459 kts 271°
2026-05-05 11:40 55.03731 -28.99178 38338 ft 459 kts 271°
2026-05-05 11:40 55.03362 -29.10292 38335 ft 459 kts 271°
2026-05-05 11:41 55.02982 -29.21401 38336 ft 459 kts 271°
2026-05-05 11:41 55.02593 -29.32501 38338 ft 459 kts 270°
2026-05-05 11:42 55.02193 -29.43611 38341 ft 459 kts 270°
2026-05-05 11:42 55.01783 -29.54720 38338 ft 459 kts 270°
2026-05-05 11:43 55.01363 -29.65830 38336 ft 459 kts 270°
2026-05-05 11:43 55.00936 -29.76850 38339 ft 458 kts 270°
2026-05-05 11:44 55.00493 -29.87978 38338 ft 456 kts 270°
2026-05-05 11:44 55.00116 -29.98984 38339 ft 453 kts 275°
2026-05-05 11:45 55.00391 -30.09855 38339 ft 451 kts 277°
2026-05-05 11:45 55.00812 -30.20776 38339 ft 451 kts 278°
2026-05-05 11:46 55.01255 -30.31673 38339 ft 451 kts 278°
2026-05-05 11:46 55.01680 -30.42557 38339 ft 449 kts 278°
2026-05-05 11:47 55.02086 -30.53415 38339 ft 448 kts 278°
2026-05-05 11:47 55.02479 -30.64265 38342 ft 449 kts 277°
2026-05-05 11:48 55.03051 -30.80546 38343 ft 449 kts 277°
2026-05-05 11:48 55.03419 -30.91400 38332 ft 449 kts 277°
2026-05-05 11:49 55.03779 -31.02253 38317 ft 447 kts 277°
2026-05-05 11:49 55.04127 -31.13068 38335 ft 446 kts 277°
2026-05-05 11:50 55.04465 -31.23874 38334 ft 446 kts 276°
2026-05-05 11:50 55.04794 -31.34675 38333 ft 446 kts 276°
2026-05-05 11:51 55.05111 -31.45413 38333 ft 446 kts 276°
2026-05-05 11:51 55.05421 -31.56235 38328 ft 446 kts 276°
2026-05-05 11:52 55.05722 -31.67052 38312 ft 446 kts 276°
2026-05-05 11:52 55.06012 -31.77861 38329 ft 446 kts 276°
2026-05-05 11:53 55.06293 -31.88657 38325 ft 445 kts 275°
2026-05-05 11:53 55.06565 -31.99473 38331 ft 446 kts 275°
2026-05-05 11:54 55.06824 -32.10213 38320 ft 446 kts 275°
2026-05-05 11:54 55.07078 -32.21100 38321 ft 446 kts 275°
2026-05-05 11:55 55.07319 -32.31848 38315 ft 446 kts 275°
2026-05-05 11:55 55.07553 -32.42682 38325 ft 447 kts 274°
2026-05-05 11:56 55.07777 -32.53525 38327 ft 447 kts 274°
2026-05-05 11:56 55.07991 -32.64373 38307 ft 447 kts 274°
2026-05-05 11:57 55.08195 -32.75227 38306 ft 447 kts 274°
2026-05-05 11:57 55.08391 -32.86080 38319 ft 448 kts 274°
2026-05-05 11:58 55.08577 -32.96958 38309 ft 449 kts 274°
2026-05-05 11:58 55.08754 -33.07857 38310 ft 450 kts 273°
2026-05-05 11:59 55.08921 -33.18804 38301 ft 451 kts 273°
2026-05-05 11:59 55.09078 -33.29755 38304 ft 451 kts 272°
2026-05-05 12:00 55.09226 -33.40714 38299 ft 451 kts 272°
2026-05-05 12:00 55.09342 -33.49818 38298 ft 451 kts 272°
2026-05-05 12:01 55.09471 -33.60778 38296 ft 451 kts 272°
2026-05-05 12:01 55.09592 -33.71740 38295 ft 451 kts 272°
2026-05-05 12:02 55.09702 -33.82696 38287 ft 451 kts 271°
2026-05-05 12:02 55.09802 -33.93668 38292 ft 452 kts 272°
2026-05-05 12:03 55.09892 -34.04620 38290 ft 451 kts 271°
2026-05-05 12:03 55.09973 -34.15581 38285 ft 452 kts 271°
2026-05-05 12:04 55.10044 -34.26544 38286 ft 451 kts 271°
2026-05-05 12:04 55.10105 -34.37505 38277 ft 452 kts 270°
2026-05-05 12:05 55.10156 -34.48463 38270 ft 451 kts 270°
2026-05-05 12:05 55.10197 -34.59413 38269 ft 452 kts 270°
2026-05-05 12:06 55.10229 -34.70386 38269 ft 451 kts 270°
2026-05-05 12:06 55.10251 -34.81275 38252 ft 452 kts 270°
2026-05-05 12:07 55.10263 -34.92287 38265 ft 453 kts 270°
2026-05-05 12:07 55.10265 -35.03368 38257 ft 454 kts 269°
2026-05-05 12:08 55.10257 -35.14357 38242 ft 457 kts 268°
2026-05-05 12:08 55.10238 -35.25452 38251 ft 457 kts 269°
2026-05-05 12:09 55.10210 -35.36561 38245 ft 457 kts 268°
2026-05-05 12:09 55.10172 -35.47660 38251 ft 457 kts 269°
2026-05-05 12:10 55.10124 -35.58759 38234 ft 457 kts 268°
2026-05-05 12:10 55.10065 -35.69856 38247 ft 457 kts 268°
2026-05-05 12:11 55.09997 -35.80991 38227 ft 460 kts 268°
2026-05-05 12:11 55.09917 -35.92168 38229 ft 460 kts 268°
2026-05-05 12:12 55.09828 -36.03346 38233 ft 461 kts 266°
2026-05-05 12:12 55.09727 -36.14526 38220 ft 460 kts 267°
2026-05-05 12:13 55.09617 -36.25704 38215 ft 461 kts 267°
2026-05-05 12:13 55.09498 -36.36814 38213 ft 461 kts 267°
2026-05-05 12:14 55.09366 -36.48063 38203 ft 465 kts 266°
2026-05-05 12:14 55.09223 -36.59375 38204 ft 466 kts 267°
2026-05-05 12:15 55.09071 -36.70691 38199 ft 467 kts 266°
2026-05-05 12:15 55.08907 -36.82045 38196 ft 468 kts 265°
2026-05-05 12:16 55.08732 -36.93416 38188 ft 468 kts 265°
2026-05-05 12:16 55.08547 -37.04782 38187 ft 469 kts 265°
2026-05-05 12:17 55.08349 -37.16215 38173 ft 473 kts 265°
2026-05-05 12:17 55.08140 -37.27686 38173 ft 473 kts 265°
2026-05-05 12:18 55.07921 -37.39161 38173 ft 473 kts 265°
2026-05-05 12:18 55.07691 -37.50626 38162 ft 473 kts 265°
2026-05-05 12:19 55.07452 -37.62017 38174 ft 473 kts 265°
2026-05-05 12:19 55.07200 -37.73498 38161 ft 475 kts 264°
2026-05-05 12:20 55.06935 -37.85029 38146 ft 476 kts 264°
2026-05-05 12:20 55.06660 -37.96587 38128 ft 476 kts 264°
2026-05-05 12:21 55.06374 -38.08129 38131 ft 476 kts 264°
2026-05-05 12:21 55.06077 -38.19667 38124 ft 476 kts 263°
2026-05-05 12:22 55.05769 -38.31210 38128 ft 476 kts 263°
2026-05-05 12:22 55.05449 -38.42766 38124 ft 478 kts 263°
2026-05-05 12:23 55.05116 -38.54378 38123 ft 480 kts 263°
2026-05-05 12:23 55.04773 -38.66016 38105 ft 481 kts 263°
2026-05-05 12:24 55.04417 -38.77663 38100 ft 481 kts 262°
2026-05-05 12:24 55.04051 -38.89309 38100 ft 481 kts 262°
2026-05-05 12:25 55.03676 -39.00876 38112 ft 481 kts 262°
2026-05-05 12:25 55.03286 -39.12543 38088 ft 483 kts 262°
2026-05-05 12:26 55.02884 -39.24252 38086 ft 483 kts 262°
2026-05-05 12:26 55.02471 -39.35945 38072 ft 483 kts 262°
2026-05-05 12:27 55.02047 -39.47635 38074 ft 483 kts 262°
2026-05-05 12:27 55.01615 -39.59243 38064 ft 483 kts 262°
2026-05-05 12:28 55.01168 -39.70929 38067 ft 483 kts 262°
2026-05-05 12:28 55.00710 -39.82618 38055 ft 484 kts 262°
2026-05-05 12:29 55.00241 -39.94315 38056 ft 484 kts 262°
2026-05-05 12:29 54.99705 -40.05988 38050 ft 483 kts 260°
2026-05-05 12:30 54.99028 -40.17619 38053 ft 483 kts 259°
2026-05-05 12:30 54.98318 -40.29245 38053 ft 483 kts 259°
2026-05-05 12:31 54.97610 -40.40864 38045 ft 483 kts 259°
2026-05-05 12:31 54.96900 -40.52507 38040 ft 484 kts 259°
2026-05-05 12:32 54.96178 -40.64177 38037 ft 485 kts 259°
2026-05-05 12:32 54.95446 -40.75855 38035 ft 485 kts 259°
2026-05-05 12:33 54.94706 -40.87460 38032 ft 485 kts 259°
2026-05-05 12:33 54.93950 -40.99118 38039 ft 485 kts 259°
2026-05-05 12:34 54.93185 -41.10758 38030 ft 484 kts 259°
2026-05-05 12:34 54.92411 -41.22364 38027 ft 483 kts 259°
2026-05-05 12:35 54.91623 -41.33977 38021 ft 483 kts 259°
2026-05-05 12:35 54.90826 -41.45575 38037 ft 483 kts 258°
2026-05-05 12:36 54.90017 -41.57182 38027 ft 485 kts 258°
2026-05-05 12:36 54.89195 -41.68806 38017 ft 484 kts 258°
2026-05-05 12:37 54.88366 -41.80396 38019 ft 483 kts 258°
2026-05-05 12:37 54.87526 -41.91960 38017 ft 483 kts 258°
2026-05-05 12:38 54.86674 -42.03524 38014 ft 483 kts 258°
2026-05-05 12:38 54.85812 -42.15081 38011 ft 483 kts 258°
2026-05-05 12:39 54.84945 -42.26555 38012 ft 483 kts 258°
2026-05-05 12:39 54.84061 -42.38104 38009 ft 483 kts 258°
2026-05-05 12:40 54.83166 -42.49644 38008 ft 483 kts 258°
2026-05-05 12:40 54.82257 -42.61208 37998 ft 484 kts 257°
2026-05-05 12:41 54.81337 -42.72784 37993 ft 484 kts 257°
2026-05-05 12:41 54.80406 -42.84354 37991 ft 484 kts 257°
2026-05-05 12:42 54.79465 -42.95906 37989 ft 483 kts 257°
2026-05-05 12:42 54.78521 -43.07355 37990 ft 482 kts 257°
2026-05-05 12:43 54.77562 -43.18845 37988 ft 482 kts 257°
2026-05-05 12:43 54.76591 -43.30334 37979 ft 482 kts 257°
2026-05-05 12:44 54.75611 -43.41809 37987 ft 482 kts 257°
2026-05-05 12:44 54.74617 -43.53298 38002 ft 484 kts 257°
2026-05-05 12:45 54.73613 -43.64796 37960 ft 482 kts 257°
2026-05-05 12:45 54.72600 -43.76261 37960 ft 482 kts 257°
2026-05-05 12:46 54.71578 -43.87695 37960 ft 481 kts 256°
2026-05-05 12:46 54.70546 -43.99115 37944 ft 480 kts 256°
2026-05-05 12:47 54.69502 -44.10536 37944 ft 480 kts 256°
2026-05-05 12:47 54.68628 -44.20007 37939 ft 480 kts 256°
2026-05-05 12:48 54.67394 -44.33248 37936 ft 480 kts 256°
2026-05-05 12:48 54.66321 -44.44628 37920 ft 481 kts 256°
2026-05-05 12:49 54.65233 -44.56037 37919 ft 482 kts 256°
2026-05-05 12:49 54.64314 -44.65593 37914 ft 482 kts 256°
2026-05-05 12:50 54.63027 -44.78846 37935 ft 482 kts 256°
2026-05-05 12:50 54.62089 -44.88393 37905 ft 481 kts 256°
2026-05-05 12:51 54.60962 -44.99763 37898 ft 481 kts 256°
2026-05-05 12:51 54.59824 -45.11133 37898 ft 481 kts 256°
2026-05-05 12:52 54.58683 -45.22418 37881 ft 481 kts 255°
2026-05-05 12:52 54.57523 -45.33780 37889 ft 481 kts 255°
2026-05-05 12:53 54.56353 -45.45133 37878 ft 481 kts 255°
2026-05-05 12:53 54.55172 -45.56482 37862 ft 481 kts 255°
2026-05-05 12:54 54.53382 -45.73483 37854 ft 481 kts 255°
2026-05-05 12:55 54.52176 -45.84805 37860 ft 481 kts 255°
2026-05-05 12:55 54.50960 -45.96116 37844 ft 481 kts 255°
2026-05-05 12:56 54.49732 -46.07424 37853 ft 480 kts 255°
2026-05-05 12:56 54.48497 -46.18703 37833 ft 479 kts 255°
2026-05-05 12:57 54.47253 -46.29960 37845 ft 479 kts 255°
2026-05-05 12:57 54.45996 -46.41222 37819 ft 480 kts 255°
2026-05-05 12:58 54.44734 -46.52433 37818 ft 481 kts 255°
2026-05-05 12:58 54.43454 -46.63707 37818 ft 480 kts 255°
2026-05-05 12:59 54.42166 -46.74962 37800 ft 480 kts 255°
2026-05-05 12:59 54.40870 -46.86183 37800 ft 479 kts 254°
2026-05-05 13:00 54.38905 -47.02992 37788 ft 479 kts 254°
2026-05-05 13:01 54.36252 -47.25381 37789 ft 479 kts 254°
2026-05-05 13:01 54.34907 -47.36583 37773 ft 479 kts 254°
2026-05-05 13:02 54.33555 -47.47759 37756 ft 479 kts 254°
2026-05-05 13:02 54.32201 -47.58849 37755 ft 479 kts 254°
2026-05-05 13:03 54.30829 -47.70003 37745 ft 479 kts 254°
2026-05-05 13:03 54.29446 -47.81151 37747 ft 478 kts 254°
2026-05-05 13:04 54.28054 -47.92281 37744 ft 478 kts 254°
2026-05-05 13:04 54.26653 -48.03395 37729 ft 477 kts 253°
2026-05-05 13:05 54.25245 -48.14483 37725 ft 477 kts 253°
2026-05-05 13:05 54.23825 -48.25561 37720 ft 477 kts 253°
2026-05-05 13:06 54.22394 -48.36647 37719 ft 478 kts 253°
2026-05-05 13:06 54.20953 -48.47728 37710 ft 478 kts 253°
2026-05-05 13:07 54.19501 -48.58802 37697 ft 478 kts 253°
2026-05-05 13:07 54.18041 -48.69857 37692 ft 477 kts 253°
2026-05-05 13:08 54.16570 -48.80911 37691 ft 477 kts 253°
2026-05-05 13:08 54.15089 -48.91950 37683 ft 477 kts 253°
2026-05-05 13:09 54.13598 -49.02987 37673 ft 477 kts 253°
2026-05-05 13:09 54.12105 -49.13948 37673 ft 477 kts 253°
2026-05-05 13:10 54.10598 -49.24941 37665 ft 476 kts 253°
2026-05-05 13:10 54.09084 -49.35902 37644 ft 475 kts 253°
2026-05-05 13:11 54.07559 -49.46856 37645 ft 475 kts 253°
2026-05-05 13:11 54.06024 -49.57807 37646 ft 475 kts 253°
2026-05-05 13:12 54.04480 -49.68744 37637 ft 475 kts 253°
2026-05-05 13:12 54.02926 -49.79672 37637 ft 475 kts 253°
2026-05-05 13:13 54.01366 -49.90568 37628 ft 474 kts 252°
2026-05-05 13:13 53.99592 -50.01322 37630 ft 471 kts 246°
2026-05-05 13:14 53.97224 -50.11679 37613 ft 470 kts 244°
2026-05-05 13:14 53.94747 -50.21891 37611 ft 471 kts 244°
2026-05-05 13:15 53.92229 -50.32139 37606 ft 470 kts 244°
2026-05-05 13:15 53.89714 -50.42380 37609 ft 470 kts 244°
2026-05-05 13:16 53.87199 -50.52611 37599 ft 470 kts 244°
2026-05-05 13:16 53.84676 -50.62831 37589 ft 470 kts 244°
2026-05-05 13:17 53.82146 -50.73037 37576 ft 470 kts 244°
2026-05-05 13:17 53.79607 -50.83228 37586 ft 470 kts 244°
2026-05-05 13:18 53.77065 -50.93385 37575 ft 469 kts 244°
2026-05-05 13:18 53.74517 -51.03519 37562 ft 468 kts 244°
2026-05-05 13:19 53.71961 -51.13638 37551 ft 468 kts 244°
2026-05-05 13:19 53.69395 -51.23744 37550 ft 468 kts 244°
2026-05-05 13:20 53.66823 -51.33836 37554 ft 468 kts 244°
2026-05-05 13:20 53.64249 -51.43889 37554 ft 467 kts 243°
2026-05-05 13:21 53.61665 -51.53934 37537 ft 467 kts 244°
2026-05-05 13:21 53.59075 -51.63956 37538 ft 467 kts 244°
2026-05-05 13:22 53.56493 -51.73904 37532 ft 467 kts 244°
2026-05-05 13:22 53.53887 -51.83906 37530 ft 466 kts 244°
2026-05-05 13:23 53.51277 -51.93877 37512 ft 466 kts 244°
2026-05-05 13:23 53.48661 -52.03825 37511 ft 465 kts 244°
2026-05-05 13:24 53.46037 -52.13759 37505 ft 465 kts 244°
2026-05-05 13:24 53.43405 -52.23678 37504 ft 466 kts 243°
2026-05-05 13:25 53.40766 -52.33584 37500 ft 465 kts 244°
2026-05-05 13:25 53.38120 -52.43472 37497 ft 465 kts 244°
2026-05-05 13:26 53.35464 -52.53349 37490 ft 466 kts 244°
2026-05-05 13:26 53.32799 -52.63223 37491 ft 466 kts 244°
2026-05-05 13:27 53.30125 -52.73087 37488 ft 466 kts 244°
2026-05-05 13:27 53.27443 -52.82939 37485 ft 464 kts 244°
2026-05-05 13:28 53.24763 -52.92741 37473 ft 463 kts 244°
2026-05-05 13:28 53.22078 -53.02522 37472 ft 463 kts 244°
2026-05-05 13:29 53.19384 -53.12291 37469 ft 463 kts 244°
2026-05-05 13:29 53.16699 -53.21985 37470 ft 463 kts 243°
2026-05-05 13:30 53.13993 -53.31716 37460 ft 462 kts 244°
2026-05-05 13:30 53.11288 -53.41405 37460 ft 460 kts 244°
2026-05-05 13:31 53.08582 -53.51057 37460 ft 460 kts 244°
2026-05-05 13:31 53.05866 -53.60701 37462 ft 461 kts 243°
2026-05-05 13:32 53.03141 -53.70337 37455 ft 461 kts 244°
2026-05-05 13:32 53.00410 -53.79959 37450 ft 460 kts 244°
2026-05-05 13:33 52.97672 -53.89567 37450 ft 460 kts 243°
2026-05-05 13:33 52.94924 -53.99170 37447 ft 460 kts 243°
2026-05-05 13:34 52.92169 -54.08753 37449 ft 460 kts 243°
2026-05-05 13:34 52.89409 -54.18317 37455 ft 460 kts 243°
2026-05-05 13:35 52.86641 -54.27868 37444 ft 460 kts 243°
2026-05-05 13:35 52.83872 -54.37388 37442 ft 459 kts 243°
2026-05-05 13:36 52.81094 -54.46899 37446 ft 459 kts 243°
2026-05-05 13:36 52.78781 -54.54789 37447 ft 459 kts 243°
2026-05-05 13:37 52.75534 -54.65822 37444 ft 460 kts 243°
2026-05-05 13:37 52.72727 -54.75316 37447 ft 461 kts 243°
2026-05-05 13:38 52.70363 -54.83285 37448 ft 461 kts 243°
2026-05-05 13:38 52.67537 -54.92773 37447 ft 461 kts 243°
2026-05-05 13:39 52.64703 -55.02255 37431 ft 461 kts 243°
2026-05-05 13:39 52.61883 -55.11651 37433 ft 461 kts 243°
2026-05-05 13:40 52.59033 -55.21109 37430 ft 462 kts 243°
2026-05-05 13:40 52.56170 -55.30573 37431 ft 462 kts 243°
2026-05-05 13:41 52.53299 -55.40026 37432 ft 462 kts 243°
2026-05-05 13:41 52.50422 -55.49463 37417 ft 462 kts 243°
2026-05-05 13:42 52.47536 -55.58889 37410 ft 462 kts 243°
2026-05-05 13:42 52.44648 -55.68289 37403 ft 461 kts 243°
2026-05-05 13:43 52.41753 -55.77675 37404 ft 462 kts 243°
2026-05-05 13:43 52.38269 -55.86489 37380 ft 462 kts 232°
2026-05-05 13:44 52.34166 -55.94586 37400 ft 462 kts 229°
2026-05-05 13:44 52.29981 -56.02461 37394 ft 461 kts 229°
2026-05-05 13:45 52.25792 -56.10297 37405 ft 456 kts 229°
2026-05-05 13:45 52.21633 -56.18100 37418 ft 455 kts 229°
2026-05-05 13:46 52.17477 -56.25900 37455 ft 456 kts 229°
2026-05-05 13:46 52.13319 -56.33686 37454 ft 456 kts 230°
2026-05-05 13:47 52.09146 -56.41475 37464 ft 457 kts 229°
2026-05-05 13:47 52.04960 -56.49260 37465 ft 457 kts 229°
2026-05-05 13:48 52.00767 -56.57033 37474 ft 457 kts 229°
2026-05-05 13:48 51.96571 -56.64789 37476 ft 457 kts 230°
2026-05-05 13:49 51.92373 -56.72524 37486 ft 457 kts 230°
2026-05-05 13:49 51.88174 -56.80238 37498 ft 456 kts 229°
2026-05-05 13:50 51.83974 -56.87931 37501 ft 456 kts 230°
2026-05-05 13:50 51.79767 -56.95613 37503 ft 456 kts 230°
2026-05-05 13:51 51.75585 -57.03225 37504 ft 456 kts 230°
2026-05-05 13:51 51.71378 -57.10860 37511 ft 455 kts 230°
2026-05-05 13:52 51.67167 -57.18479 37509 ft 455 kts 230°
2026-05-05 13:52 51.62942 -57.26101 37597 ft 458 kts 230°
2026-05-05 13:53 51.60820 -57.29919 37834 ft 458 kts 229°
2026-05-05 13:53 51.58695 -57.33738 38034 ft 458 kts 230°
2026-05-05 13:53 51.56571 -57.37549 38258 ft 457 kts 229°
2026-05-05 13:53 51.54448 -57.41351 38413 ft 457 kts 229°
2026-05-05 13:54 51.52326 -57.45147 38547 ft 457 kts 229°
2026-05-05 13:54 51.50200 -57.48945 38712 ft 457 kts 229°
2026-05-05 13:54 51.48072 -57.52739 38821 ft 458 kts 229°
2026-05-05 13:54 51.45942 -57.56533 39008 ft 457 kts 229°
2026-05-05 13:55 51.41679 -57.64108 39279 ft 457 kts 229°
2026-05-05 13:55 51.39545 -57.67891 39394 ft 458 kts 229°
2026-05-05 13:55 51.37410 -57.71670 39528 ft 457 kts 229°
2026-05-05 13:56 51.33145 -57.79201 39551 ft 457 kts 229°
2026-05-05 13:56 51.28861 -57.86745 39558 ft 459 kts 229°
2026-05-05 13:57 51.24558 -57.94299 39571 ft 460 kts 229°
2026-05-05 13:57 51.20254 -58.01831 39557 ft 459 kts 229°
2026-05-05 13:58 51.15946 -58.09349 39583 ft 459 kts 229°
2026-05-05 13:58 51.11635 -58.16849 39570 ft 459 kts 229°
2026-05-05 13:59 51.05157 -58.28078 39584 ft 458 kts 229°
2026-05-05 14:00 50.99418 -58.37983 39592 ft 457 kts 229°
2026-05-05 14:00 50.94376 -58.46655 39600 ft 457 kts 228°
2026-05-05 14:01 50.90086 -58.54009 39597 ft 457 kts 228°
2026-05-05 14:01 50.85761 -58.61402 39600 ft 458 kts 229°
2026-05-05 14:02 50.81425 -58.68792 39610 ft 459 kts 228°
2026-05-05 14:02 50.77081 -58.76173 39609 ft 458 kts 228°
2026-05-05 14:03 50.72734 -58.83539 39615 ft 458 kts 228°
2026-05-05 14:03 50.68378 -58.90898 39618 ft 458 kts 229°
2026-05-05 14:04 50.64021 -58.98236 39627 ft 458 kts 228°
2026-05-05 14:04 50.59660 -59.05561 39633 ft 458 kts 228°
2026-05-05 14:05 50.55295 -59.12871 39633 ft 458 kts 228°
2026-05-05 14:05 50.50930 -59.20159 39638 ft 457 kts 229°
2026-05-05 14:06 50.46577 -59.27407 39650 ft 455 kts 228°
2026-05-05 14:06 50.42222 -59.34637 39651 ft 455 kts 228°
2026-05-05 14:07 50.37866 -59.41850 39653 ft 455 kts 228°
2026-05-05 14:07 50.33507 -59.49046 39653 ft 454 kts 228°
2026-05-05 14:08 50.29188 -59.56154 39668 ft 452 kts 228°
2026-05-05 14:08 50.24847 -59.63278 39675 ft 452 kts 229°
2026-05-05 14:09 50.20506 -59.70385 39675 ft 452 kts 229°
2026-05-05 14:09 50.16156 -59.77485 39701 ft 452 kts 229°
2026-05-05 14:10 50.11814 -59.84565 39693 ft 452 kts 228°
2026-05-05 14:10 50.07436 -59.91666 39698 ft 457 kts 228°
2026-05-05 14:11 50.03026 -59.98800 39710 ft 458 kts 228°
2026-05-05 14:11 49.98606 -60.05929 39709 ft 457 kts 228°
2026-05-05 14:12 49.94196 -60.13026 39719 ft 456 kts 228°
2026-05-05 14:12 49.89790 -60.20096 39719 ft 456 kts 228°
2026-05-05 14:13 49.85377 -60.27160 39719 ft 456 kts 228°
2026-05-05 14:13 49.80993 -60.34156 39726 ft 456 kts 228°
2026-05-05 14:14 49.76576 -60.41186 39727 ft 455 kts 228°
2026-05-05 14:14 49.72157 -60.48199 39727 ft 455 kts 228°
2026-05-05 14:15 49.67733 -60.55200 39735 ft 455 kts 227°
2026-05-05 14:15 49.63306 -60.62188 39735 ft 455 kts 227°
2026-05-05 14:16 49.58873 -60.69164 39744 ft 455 kts 227°
2026-05-05 14:16 49.54434 -60.76132 39749 ft 455 kts 227°
2026-05-05 14:17 49.49992 -60.83085 39752 ft 455 kts 227°
2026-05-05 14:17 49.45547 -60.90023 39759 ft 456 kts 227°
2026-05-05 14:18 49.41093 -60.96956 39750 ft 456 kts 227°
2026-05-05 14:18 49.36635 -61.03877 39759 ft 456 kts 227°
2026-05-05 14:19 49.32173 -61.10785 39768 ft 456 kts 227°
2026-05-05 14:19 49.27705 -61.17683 39763 ft 456 kts 227°
2026-05-05 14:20 49.23259 -61.24529 39772 ft 456 kts 227°
2026-05-05 14:20 49.18779 -61.31409 39780 ft 456 kts 227°
2026-05-05 14:21 49.14295 -61.38275 39775 ft 457 kts 227°
2026-05-05 14:21 49.09803 -61.45135 39780 ft 457 kts 227°
2026-05-05 14:22 49.05307 -61.51982 39784 ft 457 kts 227°
2026-05-05 14:22 49.00807 -61.58818 39787 ft 457 kts 227°
2026-05-05 14:23 48.96299 -61.65648 39788 ft 457 kts 227°
2026-05-05 14:23 48.91782 -61.72474 39790 ft 458 kts 227°
2026-05-05 14:24 48.87256 -61.79292 39798 ft 458 kts 227°
2026-05-05 14:24 48.83496 -61.84942 39801 ft 458 kts 227°
2026-05-05 14:25 48.78969 -61.91728 39799 ft 458 kts 227°
2026-05-05 14:25 48.74439 -61.98502 39802 ft 457 kts 227°
2026-05-05 14:26 48.69911 -62.05254 39809 ft 457 kts 227°
2026-05-05 14:26 48.65383 -62.11989 39806 ft 457 kts 227°
2026-05-05 14:27 48.60849 -62.18715 39811 ft 457 kts 227°
2026-05-05 14:27 48.56312 -62.25427 39808 ft 456 kts 227°
2026-05-05 14:28 48.51777 -62.32118 39809 ft 456 kts 227°
2026-05-05 14:28 48.47241 -62.38793 39811 ft 456 kts 227°
2026-05-05 14:29 48.42701 -62.45457 39810 ft 456 kts 227°
2026-05-05 14:29 48.38162 -62.52101 39811 ft 454 kts 227°
2026-05-05 14:30 48.33635 -62.58709 39815 ft 453 kts 227°
2026-05-05 14:30 48.29142 -62.65254 39815 ft 453 kts 227°
2026-05-05 14:31 48.24616 -62.71828 39793 ft 453 kts 227°
2026-05-05 14:31 48.20096 -62.78375 39813 ft 450 kts 227°
2026-05-05 14:32 48.15593 -62.84881 39819 ft 449 kts 227°
2026-05-05 14:32 48.11089 -62.91373 39823 ft 449 kts 227°
2026-05-05 14:33 48.06585 -62.97850 39811 ft 449 kts 227°
2026-05-05 14:33 48.02081 -63.04307 39812 ft 448 kts 227°
2026-05-05 14:34 47.97589 -63.10731 39816 ft 447 kts 227°
2026-05-05 14:34 47.93093 -63.17146 39817 ft 447 kts 227°
2026-05-05 14:35 47.88595 -63.23548 39819 ft 447 kts 227°
2026-05-05 14:35 47.84094 -63.29936 39812 ft 447 kts 227°
2026-05-05 14:36 47.79589 -63.36315 39815 ft 447 kts 227°
2026-05-05 14:36 47.75081 -63.42681 39816 ft 447 kts 227°
2026-05-05 14:37 47.70571 -63.49035 39821 ft 446 kts 227°
2026-05-05 14:37 47.66067 -63.55364 39803 ft 445 kts 227°
2026-05-05 14:38 47.61567 -63.61671 39819 ft 445 kts 227°
2026-05-05 14:38 47.57069 -63.67961 39810 ft 445 kts 227°
2026-05-05 14:39 47.52564 -63.74245 39809 ft 445 kts 227°
2026-05-05 14:39 47.48063 -63.80508 39809 ft 444 kts 227°
2026-05-05 14:40 47.43558 -63.86760 39807 ft 444 kts 227°
2026-05-05 14:40 47.39051 -63.93001 39807 ft 444 kts 227°
2026-05-05 14:41 47.34569 -63.99191 39804 ft 444 kts 227°
2026-05-05 14:41 47.30060 -64.05403 39804 ft 444 kts 227°
2026-05-05 14:42 47.25550 -64.11600 39804 ft 444 kts 227°
2026-05-05 14:42 47.21033 -64.17794 39809 ft 444 kts 227°
2026-05-05 14:43 47.16513 -64.23975 39815 ft 444 kts 226°
2026-05-05 14:43 47.11990 -64.30146 39815 ft 444 kts 226°
2026-05-05 14:44 47.07461 -64.36310 39815 ft 444 kts 226°
2026-05-05 14:44 47.02930 -64.42461 39798 ft 444 kts 226°
2026-05-05 14:45 46.98391 -64.48611 39815 ft 445 kts 226°
2026-05-05 14:45 46.93842 -64.54757 39815 ft 445 kts 226°
2026-05-05 14:46 46.89289 -64.60893 39818 ft 445 kts 226°
2026-05-05 14:46 46.84731 -64.67022 39813 ft 445 kts 226°
2026-05-05 14:47 46.80168 -64.73143 39818 ft 446 kts 226°
2026-05-05 14:47 46.75598 -64.79258 39816 ft 446 kts 226°
2026-05-05 14:48 46.71026 -64.85361 39822 ft 446 kts 226°
2026-05-05 14:48 46.66448 -64.91457 39817 ft 445 kts 226°
2026-05-05 14:49 46.61884 -64.97520 39825 ft 444 kts 226°
2026-05-05 14:49 46.57321 -65.03568 39824 ft 444 kts 226°
2026-05-05 14:50 46.52759 -65.09601 39827 ft 444 kts 226°
2026-05-05 14:50 46.48226 -65.15580 39831 ft 443 kts 226°
2026-05-05 14:51 46.43666 -65.21580 39833 ft 442 kts 226°
2026-05-05 14:51 46.39106 -65.27568 39834 ft 442 kts 226°
2026-05-05 14:52 46.34540 -65.33548 39819 ft 442 kts 226°
2026-05-05 14:52 46.29971 -65.39519 39828 ft 442 kts 226°
2026-05-05 14:53 46.25398 -65.45481 39832 ft 443 kts 226°
2026-05-05 14:53 46.20825 -65.51428 39835 ft 443 kts 226°
2026-05-05 14:54 46.16246 -65.57369 39840 ft 443 kts 225°
2026-05-05 14:54 46.11664 -65.63302 39834 ft 443 kts 225°
2026-05-05 14:55 46.07077 -65.69226 39840 ft 443 kts 225°
2026-05-05 14:55 46.02491 -65.75135 39848 ft 443 kts 225°
2026-05-05 14:56 45.97931 -65.80997 39852 ft 443 kts 225°
2026-05-05 14:56 45.93335 -65.86892 39858 ft 443 kts 225°
2026-05-05 14:57 45.88733 -65.92781 39854 ft 443 kts 225°
2026-05-05 14:57 45.84130 -65.98657 39844 ft 443 kts 225°
2026-05-05 14:58 45.79526 -66.04521 39863 ft 443 kts 225°
2026-05-05 14:58 45.74919 -66.10376 39854 ft 443 kts 225°
2026-05-05 14:59 45.70308 -66.16222 39854 ft 443 kts 225°
2026-05-05 14:59 45.65695 -66.22058 39870 ft 442 kts 225°
2026-05-05 15:00 45.61861 -66.26897 39874 ft 442 kts 225°
2026-05-05 15:00 45.56468 -66.33690 39879 ft 442 kts 225°
2026-05-05 15:01 45.51851 -66.39490 39890 ft 442 kts 225°
2026-05-05 15:01 45.47244 -66.45263 39891 ft 441 kts 225°
2026-05-05 15:02 45.42639 -66.51023 39894 ft 440 kts 225°
2026-05-05 15:02 45.38035 -66.56768 39898 ft 440 kts 225°
2026-05-05 15:03 45.33430 -66.62502 39893 ft 440 kts 225°
2026-05-05 15:03 45.28822 -66.68226 39895 ft 440 kts 224°
2026-05-05 15:04 45.24212 -66.73939 39889 ft 440 kts 224°
2026-05-05 15:04 45.19627 -66.79609 39899 ft 440 kts 224°
2026-05-05 15:05 45.12703 -66.88147 39896 ft 440 kts 224°
2026-05-05 15:06 45.08085 -66.93826 39918 ft 440 kts 224°
2026-05-05 15:06 45.03467 -66.99493 39901 ft 440 kts 224°
2026-05-05 15:07 44.98844 -67.05153 39914 ft 439 kts 224°
2026-05-05 15:07 44.94226 -67.10796 39920 ft 439 kts 224°
2026-05-05 15:08 44.89633 -67.16465 39918 ft 438 kts 226°
2026-05-05 15:08 44.85297 -67.22462 39899 ft 436 kts 229°
2026-05-05 15:09 44.81060 -67.28579 39920 ft 436 kts 229°
2026-05-05 15:09 44.76841 -67.34625 39918 ft 436 kts 228°
2026-05-05 15:10 44.72566 -67.40679 39922 ft 436 kts 228°
2026-05-05 15:10 44.68276 -67.46715 39919 ft 436 kts 228°
2026-05-05 15:11 44.63983 -67.52739 39929 ft 436 kts 228°
2026-05-05 15:11 44.59690 -67.58752 39927 ft 436 kts 228°
2026-05-05 15:12 44.56123 -67.63739 39917 ft 435 kts 228°
2026-05-05 15:12 44.51117 -67.70723 39920 ft 434 kts 228°
2026-05-05 15:13 44.46829 -67.76693 39917 ft 434 kts 228°
2026-05-05 15:13 44.43266 -67.81642 39919 ft 434 kts 228°
2026-05-05 15:14 44.38973 -67.87593 39921 ft 434 kts 227°
2026-05-05 15:14 44.34685 -67.93525 39922 ft 434 kts 227°
2026-05-05 15:15 44.30383 -67.99464 39911 ft 434 kts 227°
2026-05-05 15:15 44.26084 -68.05385 39915 ft 434 kts 227°
2026-05-05 15:16 44.21781 -68.11298 39914 ft 434 kts 227°
2026-05-05 15:16 44.17473 -68.17205 39916 ft 435 kts 227°
2026-05-05 15:17 44.13161 -68.23107 39912 ft 435 kts 227°
2026-05-05 15:17 44.08871 -68.28964 39914 ft 435 kts 227°
2026-05-05 15:18 44.04551 -68.34849 39914 ft 435 kts 227°
2026-05-05 15:18 44.00223 -68.40735 39911 ft 435 kts 227°
2026-05-05 15:19 43.95891 -68.46610 39910 ft 435 kts 227°
2026-05-05 15:19 43.91555 -68.52481 39908 ft 435 kts 227°
2026-05-05 15:20 43.87215 -68.58343 39912 ft 436 kts 227°
2026-05-05 15:20 43.82875 -68.64192 39910 ft 435 kts 226°
2026-05-05 15:21 43.78536 -68.70028 39909 ft 435 kts 226°
2026-05-05 15:21 43.74222 -68.75818 39903 ft 435 kts 226°
2026-05-05 15:22 43.69873 -68.81644 39906 ft 435 kts 226°
2026-05-05 15:22 43.65514 -68.87469 39908 ft 436 kts 226°
2026-05-05 15:23 43.61156 -68.93281 39911 ft 436 kts 226°
2026-05-05 15:23 43.56793 -68.99087 39908 ft 436 kts 226°
2026-05-05 15:24 43.52426 -69.04885 39914 ft 436 kts 226°
2026-05-05 15:24 43.48054 -69.10680 39914 ft 436 kts 226°
2026-05-05 15:25 43.43680 -69.16463 39901 ft 436 kts 226°
2026-05-05 15:25 43.39297 -69.22247 39911 ft 437 kts 226°
2026-05-05 15:26 43.34908 -69.28027 39914 ft 437 kts 226°
2026-05-05 15:26 43.30512 -69.33802 39917 ft 437 kts 226°
2026-05-05 15:27 43.26117 -69.39565 39917 ft 437 kts 226°
2026-05-05 15:27 43.21743 -69.45289 39917 ft 437 kts 226°
2026-05-05 15:28 43.17337 -69.51042 39911 ft 437 kts 226°
2026-05-05 15:28 43.12934 -69.56779 39907 ft 436 kts 226°
2026-05-05 15:29 43.08526 -69.62511 39914 ft 438 kts 226°
2026-05-05 15:29 43.04107 -69.68245 39908 ft 438 kts 226°
2026-05-05 15:30 42.99691 -69.73963 39913 ft 438 kts 226°
2026-05-05 15:30 42.95266 -69.79680 39906 ft 438 kts 226°
2026-05-05 15:31 42.90840 -69.85387 39909 ft 438 kts 226°
2026-05-05 15:31 42.86411 -69.91086 39917 ft 437 kts 226°
2026-05-05 15:32 42.82017 -69.96730 39898 ft 437 kts 225°
2026-05-05 15:32 42.77583 -70.02412 39911 ft 439 kts 225°
2026-05-05 15:33 42.73135 -70.08101 39904 ft 439 kts 225°
2026-05-05 15:33 42.68682 -70.13783 39911 ft 439 kts 225°
2026-05-05 15:34 42.64223 -70.19463 39910 ft 440 kts 225°
2026-05-05 15:34 42.59759 -70.25137 39908 ft 440 kts 225°
2026-05-05 15:35 42.55284 -70.30812 39913 ft 440 kts 225°
2026-05-05 15:35 42.50810 -70.36475 39895 ft 440 kts 225°
2026-05-05 15:36 42.46333 -70.42131 39909 ft 441 kts 225°
2026-05-05 15:36 42.41839 -70.47795 39907 ft 441 kts 225°
2026-05-05 15:37 42.37348 -70.53445 39923 ft 441 kts 225°
2026-05-05 15:37 42.32860 -70.59079 39912 ft 440 kts 225°
2026-05-05 15:38 42.28380 -70.64691 39903 ft 439 kts 224°
2026-05-05 15:38 42.23932 -70.70254 39911 ft 439 kts 224°
2026-05-05 15:39 42.19449 -70.75847 39899 ft 439 kts 224°
2026-05-05 15:39 42.14961 -70.81437 39912 ft 439 kts 224°
2026-05-05 15:40 42.10465 -70.87024 39919 ft 439 kts 224°
2026-05-05 15:40 42.05971 -70.92597 39915 ft 439 kts 224°
2026-05-05 15:41 42.01479 -70.98156 39932 ft 438 kts 224°
2026-05-05 15:41 41.96993 -71.03699 39943 ft 438 kts 224°
2026-05-05 15:42 41.92500 -71.09237 39945 ft 438 kts 224°
2026-05-05 15:42 41.88007 -71.14766 39941 ft 438 kts 224°
2026-05-05 15:43 41.83513 -71.20283 39938 ft 438 kts 224°
2026-05-05 15:43 41.79019 -71.25791 39952 ft 437 kts 224°
2026-05-05 15:44 41.74525 -71.31287 39953 ft 437 kts 224°
2026-05-05 15:44 41.70027 -71.36777 39953 ft 437 kts 224°
2026-05-05 15:45 41.65559 -71.42220 39926 ft 437 kts 224°
2026-05-05 15:45 41.61058 -71.47692 39925 ft 437 kts 224°
2026-05-05 15:46 41.56556 -71.53156 39924 ft 437 kts 224°
2026-05-05 15:46 41.52052 -71.58610 39926 ft 437 kts 224°
2026-05-05 15:47 41.47546 -71.64056 39975 ft 437 kts 224°
2026-05-05 15:47 41.43034 -71.69499 39980 ft 437 kts 223°
2026-05-05 15:48 41.38522 -71.74930 39979 ft 437 kts 223°
2026-05-05 15:48 41.34007 -71.80355 39979 ft 437 kts 223°
2026-05-05 15:49 41.29487 -71.85776 39980 ft 437 kts 223°
2026-05-05 15:49 41.24965 -71.91188 39983 ft 437 kts 223°
2026-05-05 15:50 41.20446 -71.96586 39986 ft 436 kts 223°
2026-05-05 15:50 41.15926 -72.01975 39991 ft 437 kts 223°
2026-05-05 15:51 41.11395 -72.07368 39987 ft 438 kts 223°
2026-05-05 15:51 41.06859 -72.12755 39984 ft 438 kts 223°
2026-05-05 15:52 41.02316 -72.18139 39985 ft 438 kts 223°
2026-05-05 15:52 40.97773 -72.23514 39987 ft 438 kts 223°
2026-05-05 15:53 40.93221 -72.28889 39992 ft 439 kts 223°
2026-05-05 15:53 40.88662 -72.34262 39987 ft 439 kts 223°
2026-05-05 15:54 40.84100 -72.39629 39987 ft 439 kts 223°
2026-05-05 15:54 40.79531 -72.44992 39996 ft 440 kts 223°
2026-05-05 15:55 40.74977 -72.50329 39986 ft 441 kts 223°
2026-05-05 15:55 40.70387 -72.55696 39991 ft 441 kts 223°
2026-05-05 15:56 40.65797 -72.61054 39991 ft 441 kts 223°
2026-05-05 15:56 40.61197 -72.66413 39988 ft 442 kts 223°
2026-05-05 15:57 40.56588 -72.71773 39997 ft 442 kts 223°
2026-05-05 15:57 40.51970 -72.77132 39986 ft 443 kts 223°
2026-05-05 15:58 40.47352 -72.82481 39976 ft 443 kts 223°
2026-05-05 15:58 40.42729 -72.87825 39987 ft 443 kts 223°
2026-05-05 15:59 40.38098 -72.93170 39992 ft 443 kts 223°
2026-05-05 15:59 40.33461 -72.98511 39980 ft 444 kts 223°
2026-05-05 16:00 40.28817 -73.03849 39972 ft 444 kts 223°
2026-05-05 16:00 40.24162 -73.09189 39986 ft 445 kts 223°
2026-05-05 16:01 40.20290 -73.13625 39986 ft 445 kts 223°
2026-05-05 16:01 40.15629 -73.18954 39989 ft 445 kts 223°
2026-05-05 16:02 40.10963 -73.24279 39983 ft 445 kts 223°
2026-05-05 16:02 40.06280 -73.29580 39989 ft 446 kts 223°
2026-05-05 16:03 40.01572 -73.34851 39995 ft 446 kts 222°
2026-05-05 16:03 39.96852 -73.40121 39996 ft 447 kts 222°
2026-05-05 16:04 39.92133 -73.45384 39989 ft 447 kts 223°
2026-05-05 16:04 39.87406 -73.50650 40001 ft 447 kts 223°
2026-05-05 16:05 39.82712 -73.55875 39996 ft 447 kts 223°
2026-05-05 16:05 39.77987 -73.61134 40002 ft 447 kts 223°
2026-05-05 16:06 39.73260 -73.66388 39992 ft 447 kts 223°
2026-05-05 16:06 39.68527 -73.71638 39998 ft 448 kts 223°
2026-05-05 16:07 39.63786 -73.76887 40000 ft 448 kts 223°
2026-05-05 16:07 39.59040 -73.82130 39999 ft 448 kts 223°
2026-05-05 16:08 39.54290 -73.87369 39999 ft 448 kts 223°
2026-05-05 16:08 39.49538 -73.92600 40005 ft 448 kts 223°
2026-05-05 16:09 39.44789 -73.97819 39998 ft 448 kts 222°
2026-05-05 16:09 39.40037 -74.03030 40003 ft 448 kts 223°
2026-05-05 16:10 39.35316 -74.08192 40005 ft 447 kts 223°
2026-05-05 16:10 39.30561 -74.13380 40006 ft 447 kts 223°
2026-05-05 16:11 39.25806 -74.18559 40006 ft 447 kts 223°
2026-05-05 16:12 39.16286 -74.28902 40000 ft 448 kts 222°
2026-05-05 16:13 39.04363 -74.41802 40010 ft 447 kts 223°
2026-05-05 16:13 38.99598 -74.46940 40010 ft 447 kts 223°
2026-05-05 16:14 38.90175 -74.57348 40015 ft 446 kts 225°
2026-05-05 16:15 38.81034 -74.68137 40009 ft 446 kts 225°
2026-05-05 16:16 38.71738 -74.78719 40004 ft 448 kts 222°
2026-05-05 16:17 38.64447 -74.86239 40006 ft 449 kts 221°
2026-05-05 16:18 38.57189 -74.93723 40011 ft 448 kts 222°
2026-05-05 16:19 38.49988 -75.01340 40031 ft 447 kts 224°
2026-05-05 16:19 38.42794 -75.08949 40029 ft 449 kts 220°
2026-05-05 16:20 38.32755 -75.18377 40036 ft 447 kts 219°
2026-05-05 16:22 38.20265 -75.30161 40032 ft 447 kts 220°
2026-05-05 16:23 38.10282 -75.39575 40031 ft 447 kts 220°
2026-05-05 16:23 38.03073 -75.46993 40035 ft 444 kts 226°
2026-05-05 16:24 37.98567 -75.52353 40021 ft 444 kts 227°
2026-05-05 16:25 37.91860 -75.60377 40048 ft 444 kts 227°
2026-05-05 16:25 37.85091 -75.68464 40046 ft 444 kts 226°
2026-05-05 16:26 37.76127 -75.79143 40040 ft 445 kts 226°
2026-05-05 16:27 37.71608 -75.84514 40052 ft 447 kts 226°
2026-05-05 16:27 37.67076 -75.89889 40063 ft 447 kts 226°
2026-05-05 16:28 37.62541 -75.95259 40056 ft 447 kts 226°
2026-05-05 16:28 37.58002 -76.00624 40046 ft 447 kts 226°
2026-05-05 16:29 37.53461 -76.05981 40058 ft 447 kts 226°
2026-05-05 16:29 37.48918 -76.11332 40054 ft 447 kts 226°
2026-05-05 16:30 37.44374 -76.16675 40060 ft 448 kts 226°
2026-05-05 16:30 37.39803 -76.22043 40006 ft 451 kts 226°
2026-05-05 16:31 37.37514 -76.24724 39666 ft 449 kts 226°
2026-05-05 16:31 37.35230 -76.27399 39163 ft 449 kts 226°
2026-05-05 16:31 37.32945 -76.30073 38621 ft 449 kts 226°
2026-05-05 16:31 37.30656 -76.32749 38024 ft 449 kts 226°
2026-05-05 16:32 37.28374 -76.35414 37505 ft 448 kts 226°
2026-05-05 16:32 37.26096 -76.38073 36989 ft 446 kts 226°
2026-05-05 16:32 37.23822 -76.40724 36434 ft 446 kts 226°
2026-05-05 16:32 37.21581 -76.43336 35896 ft 446 kts 226°
2026-05-05 16:33 37.19306 -76.45985 35263 ft 447 kts 226°
2026-05-05 16:33 37.17018 -76.48647 34610 ft 449 kts 226°
2026-05-05 16:33 37.14727 -76.51311 33953 ft 450 kts 227°
2026-05-05 16:33 37.12425 -76.53984 33215 ft 452 kts 226°
2026-05-05 16:34 37.10120 -76.56658 32503 ft 452 kts 226°
2026-05-05 16:34 37.07810 -76.59335 31788 ft 452 kts 226°
2026-05-05 16:34 37.05498 -76.62013 31064 ft 453 kts 226°
2026-05-05 16:34 37.03183 -76.64692 30318 ft 454 kts 226°
2026-05-05 16:35 37.00860 -76.67378 29589 ft 453 kts 226°
2026-05-05 16:35 36.98563 -76.70028 29122 ft 445 kts 226°
2026-05-05 16:35 36.96303 -76.72635 28594 ft 439 kts 226°
2026-05-05 16:35 36.94074 -76.75204 28105 ft 432 kts 226°
2026-05-05 16:36 36.91878 -76.77734 27606 ft 427 kts 226°
2026-05-05 16:36 36.89709 -76.80230 27116 ft 421 kts 226°
2026-05-05 16:36 36.87566 -76.82697 26623 ft 416 kts 226°
2026-05-05 16:36 36.85445 -76.85135 26138 ft 412 kts 226°
2026-05-05 16:37 36.83349 -76.87543 25652 ft 408 kts 226°
2026-05-05 16:37 36.81269 -76.89930 25178 ft 404 kts 226°
2026-05-05 16:37 36.79208 -76.92293 24697 ft 401 kts 226°
2026-05-05 16:37 36.77163 -76.94637 24208 ft 398 kts 226°
2026-05-05 16:38 36.75132 -76.96963 23716 ft 395 kts 226°
2026-05-05 16:38 36.73135 -76.99254 23227 ft 398 kts 226°
2026-05-05 16:38 36.71249 -77.01824 22835 ft 405 kts 236°
2026-05-05 16:38 36.69726 -77.04769 22405 ft 403 kts 241°
2026-05-05 16:39 36.68328 -77.07774 22065 ft 399 kts 242°
2026-05-05 16:39 36.66955 -77.10765 21707 ft 396 kts 242°
2026-05-05 16:39 36.65588 -77.13732 21343 ft 394 kts 242°
2026-05-05 16:39 36.64225 -77.16678 20987 ft 391 kts 242°
2026-05-05 16:40 36.62869 -77.19601 20643 ft 389 kts 242°
2026-05-05 16:40 36.61517 -77.22511 20294 ft 387 kts 242°
2026-05-05 16:40 36.60174 -77.25399 19938 ft 385 kts 242°
2026-05-05 16:40 36.58834 -77.28276 19592 ft 383 kts 242°
2026-05-05 16:41 36.57498 -77.31140 19235 ft 381 kts 241°
2026-05-05 16:41 36.56172 -77.33982 18899 ft 378 kts 241°
2026-05-05 16:41 36.54856 -77.36799 18561 ft 376 kts 241°
2026-05-05 16:41 36.53544 -77.39607 18202 ft 374 kts 241°
2026-05-05 16:42 36.52239 -77.42394 17841 ft 372 kts 241°
2026-05-05 16:42 36.50944 -77.45161 17473 ft 370 kts 240°
2026-05-05 16:42 36.49654 -77.47916 17076 ft 368 kts 240°
2026-05-05 16:42 36.48370 -77.50653 16739 ft 366 kts 240°
2026-05-05 16:43 36.47091 -77.53376 16424 ft 364 kts 240°
2026-05-05 16:43 36.45818 -77.56085 16095 ft 362 kts 240°
2026-05-05 16:43 36.44549 -77.58781 15768 ft 361 kts 240°
2026-05-05 16:43 36.43286 -77.61465 15439 ft 359 kts 240°
2026-05-05 16:44 36.42041 -77.64105 15130 ft 358 kts 240°
2026-05-05 16:44 36.40789 -77.66761 14806 ft 356 kts 240°
2026-05-05 16:44 36.39524 -77.69445 14482 ft 354 kts 239°
2026-05-05 16:44 36.38299 -77.72042 14169 ft 353 kts 239°
2026-05-05 16:45 36.37058 -77.74668 13843 ft 351 kts 239°
2026-05-05 16:45 36.35824 -77.77277 13490 ft 350 kts 239°
2026-05-05 16:45 36.34603 -77.79884 13184 ft 349 kts 240°
2026-05-05 16:45 36.33400 -77.82496 12865 ft 347 kts 240°
2026-05-05 16:46 36.32207 -77.85092 12538 ft 346 kts 239°
2026-05-05 16:46 36.31017 -77.87681 12242 ft 344 kts 239°
2026-05-05 16:46 36.29835 -77.90253 11923 ft 343 kts 239°
2026-05-05 16:46 36.28657 -77.92814 11621 ft 341 kts 239°
2026-05-05 16:47 36.27499 -77.95329 11413 ft 328 kts 239°
2026-05-05 16:47 36.26393 -77.97730 11176 ft 315 kts 238°
2026-05-05 16:47 36.25322 -78.00051 10880 ft 305 kts 238°
2026-05-05 16:47 36.24283 -78.02300 10588 ft 297 kts 238°
2026-05-05 16:48 36.23614 -78.03754 10426 ft 291 kts 238°
2026-05-05 16:48 36.22704 -78.05962 10144 ft 284 kts 242°
2026-05-05 16:48 36.21886 -78.08147 9916 ft 276 kts 243°
2026-05-05 16:48 36.21108 -78.10274 9658 ft 268 kts 243°
2026-05-05 16:49 36.20380 -78.12385 9317 ft 265 kts 244°
2026-05-05 16:49 36.19678 -78.14473 9063 ft 261 kts 244°
2026-05-05 16:49 36.18981 -78.16552 8815 ft 261 kts 244°
2026-05-05 16:49 36.18285 -78.18625 8595 ft 261 kts 244°
2026-05-05 16:50 36.17592 -78.20692 8364 ft 260 kts 244°
2026-05-05 16:50 36.16899 -78.22758 8120 ft 259 kts 244°
2026-05-05 16:50 36.16209 -78.24814 7902 ft 259 kts 244°
2026-05-05 16:50 36.15516 -78.26871 7667 ft 259 kts 244°
2026-05-05 16:51 36.14943 -78.28953 7494 ft 252 kts 251°
2026-05-05 16:51 36.14540 -78.31035 7296 ft 246 kts 253°
2026-05-05 16:51 36.14175 -78.33085 7069 ft 242 kts 253°
2026-05-05 16:51 36.13821 -78.35095 6851 ft 237 kts 253°
2026-05-05 16:52 36.13472 -78.37065 6640 ft 232 kts 253°
2026-05-05 16:52 36.13128 -78.38999 6409 ft 228 kts 253°
2026-05-05 16:52 36.12788 -78.40900 6211 ft 225 kts 253°
2026-05-05 16:52 36.12366 -78.42736 6022 ft 218 kts 244°
2026-05-05 16:53 36.11724 -78.44398 5876 ft 211 kts 239°
2026-05-05 16:53 36.11028 -78.45992 5742 ft 211 kts 239°
2026-05-05 16:53 36.10316 -78.47587 5636 ft 212 kts 238°
2026-05-05 16:53 36.09612 -78.49186 5529 ft 211 kts 239°
2026-05-05 16:54 36.08908 -78.50773 5389 ft 211 kts 239°
2026-05-05 16:54 36.08209 -78.52347 5298 ft 212 kts 239°
2026-05-05 16:54 36.07503 -78.53938 5192 ft 210 kts 239°
2026-05-05 16:54 36.06801 -78.55515 5071 ft 210 kts 239°
2026-05-05 16:55 36.06030 -78.57048 4975 ft 209 kts 231°
2026-05-05 16:55 36.05053 -78.58370 4819 ft 208 kts 225°
2026-05-05 16:55 36.04020 -78.59626 4528 ft 209 kts 224°
2026-05-05 16:55 36.02986 -78.60913 4183 ft 213 kts 225°
2026-05-05 16:56 36.01943 -78.62218 3856 ft 214 kts 225°
2026-05-05 16:56 36.00888 -78.63528 3553 ft 216 kts 225°
2026-05-05 16:56 35.99830 -78.64843 3275 ft 216 kts 226°
2026-05-05 16:56 35.98781 -78.66146 3015 ft 209 kts 226°
2026-05-05 16:57 35.97779 -78.67391 2744 ft 202 kts 226°
2026-05-05 16:57 35.96821 -78.68580 2485 ft 188 kts 225°
2026-05-05 16:57 35.95931 -78.69687 2225 ft 175 kts 223°
2026-05-05 16:57 35.95101 -78.70717 2018 ft 163 kts 224°
2026-05-05 16:58 35.94346 -78.71654 1790 ft 145 kts 225°
2026-05-05 16:58 35.93674 -78.72488 1615 ft 130 kts 223°
2026-05-05 16:58 35.93044 -78.73269 1434 ft 127 kts 225°
2026-05-05 16:58 35.92419 -78.74042 1278 ft 127 kts 224°
2026-05-05 16:59 35.91787 -78.74825 1106 ft 130 kts 225°
2026-05-05 16:59 35.91152 -78.75613 946 ft 129 kts 226°
2026-05-05 16:59 35.90517 -78.76396 772 ft 130 kts 227°
2026-05-05 16:59 35.89884 -78.77189 616 ft 130 kts 224°
2026-05-05 17:00 35.89269 -78.77950 411 ft 122 kts 225°
2026-05-05 17:00 35.88724 -78.78623 393 ft 96 kts 226°
2026-05-05 17:00 35.88394 -78.79030 390 ft 38 kts 225°
2026-05-05 17:00 35.88269 -78.79181 389 ft 22 kts 223°
2026-05-05 17:01 35.88166 -78.79307 392 ft 21 kts 226°
2026-05-05 17:01 35.88064 -78.79435 392 ft 21 kts 225°
2026-05-05 17:01 35.87946 -78.79467 394 ft 17 kts 147°
2026-05-05 17:01 35.87933 -78.79390 391 ft 6 kts 60°
2026-05-05 17:02 35.87925 -78.79345 393 ft 2 kts 151°
2026-05-05 17:02 35.87914 -78.79346 393 ft 0 kts 178°
2026-05-05 17:02 35.87912 -78.79346 393 ft 1 kts 178°
2026-05-05 17:03 35.87896 -78.79348 394 ft 2 kts 194°
2026-05-05 17:03 35.87886 -78.79359 391 ft 2 kts 224°
2026-05-05 17:03 35.87873 -78.79363 392 ft 5 kts 180°
2026-05-05 17:03 35.87865 -78.79359 392 ft 2 kts 151°
2026-05-05 17:04 35.87875 -78.79340 391 ft 4 kts 33°
2026-05-05 17:04 35.87988 -78.79242 391 ft 30 kts 47°
2026-05-05 17:04 35.88084 -78.79074 392 ft 12 kts 98°
2026-05-05 17:04 35.88029 -78.79007 391 ft 20 kts 142°
2026-05-05 17:05 35.87959 -78.78986 390 ft 2 kts 224°
2026-05-05 17:05 35.87954 -78.79010 390 ft 5 kts 251°
2026-05-05 17:05 35.87954 -78.79046 393 ft 7 kts 272°
2026-05-05 17:05 35.87956 -78.79058 394 ft 0 kts 279°